This demonstration page uses our WeatherBlox Daily Observations layout. Learn more.

Left ArrowRight Arrow

Hourly Observations for February 10, 2021

Temp ( °F °C ) Dew Point ( °F °C ) Humidity (%) Winds ( mph kmh ) Pressure ( in mb ) Visibility ( mi km ) Precip ( " mm )
12:15 am 00:15 Partly Cloudy 5 -15 N/A 78 78 N N/A 30.52 1033 10 16 N/A
12:35 am 00:35 Partly Cloudy 5 -15 N/A 80 80 N N/A 30.52 1033 10 16 N/A
12:55 am 00:55 Mostly Cloudy 6 -14.7 N/A 76 76 N N/A 30.52 1033 10 16 N/A
1:15 am 01:15 Mostly Cloudy 6 -14.7 -1 -18.1 76 76 NE 3 6 30.50 1033 10 16 N/A
1:35 am 01:35 Partly Cloudy 6 -14.7 N/A 76 76 NE 5 7 30.50 1033 10 16 N/A
1:55 am 01:55 Partly Cloudy 6 -14.7 N/A 76 76 NE 5 7 30.50 1033 10 16 N/A
2:15 am 02:15 Clear 6 -14.6 -1 -18.4 73 73 NE 5 7 30.51 1033 10 16 N/A
2:35 am 02:35 Clear 6 -14.6 -1 -18.1 75 75 NNE 7 11 30.51 1033 10 16 N/A
2:55 am 02:55 Clear 5 -15.1 -1 -18.5 75 75 NE 5 7 30.51 1033 10 16 N/A
3:15 am 03:15 Clear 4 -15.5 -1 -18.6 77 77 NNE 3 6 30.51 1033 10 16 N/A
3:35 am 03:35 Clear 4 -15.6 -1 -18.5 79 79 N N/A 30.52 1033 10 16 N/A
3:55 am 03:55 Clear 4 -15.6 -1 -18.3 80 80 N N/A 30.53 1034 10 16 N/A
4:15 am 04:15 Clear 4 -15.5 N/A 81 81 N N/A 30.52 1034 10 16 N/A
4:35 am 04:35 Clear 4 -15.5 -1 -18.2 80 80 N 3 6 30.52 1034 10 16 N/A
4:55 am 04:55 Clear 4 -15.3 N/A 80 80 N 5 7 30.51 1033 10 16 N/A
5:15 am 05:15 Clear 4 -15.4 N/A 81 81 N 6 9 30.51 1033 10 16 N/A
5:35 am 05:35 Clear 4 -15.6 -1 -18.5 79 79 N 7 11 30.53 1034 10 16 N/A
5:55 am 05:55 Clear 3 -15.9 -2 -18.8 79 79 N 6 9 30.53 1034 10 16 N/A
6:15 am 06:15 Clear 2 -16.5 -3 -19.3 79 79 N 5 7 30.55 1034 10 16 N/A
6:35 am 06:35 Clear 2 -16.5 -3 -19.2 80 80 NNE 5 7 30.55 1034 10 16 N/A
6:55 am 06:55 Clear 3 -16.2 -2 -19.1 79 79 NNE 3 6 30.53 1034 10 16 N/A
7:15 am 07:15 Clear 3 -16.1 -2 -19 79 79 N 5 7 30.54 1034 10 16 N/A
7:35 am 07:35 Clear 3 -16 -2 -18.9 79 79 N 5 7 30.54 1034 10 16 N/A
7:55 am 07:55 Sunny 4 -15.5 -1 -18.2 80 80 N 3 6 30.55 1035 10 16 N/A
8:15 am 08:15 Sunny 4 -15.3 N/A 80 80 N 5 7 30.55 1035 10 16 N/A
8:35 am 08:35 Sunny 5 -14.9 N/A 80 80 N 5 7 30.56 1035 10 16 N/A
8:55 am 08:55 Sunny 6 -14.6 1 -17.2 81 81 N 6 9 30.57 1035 10 16 N/A
9:15 am 09:15 Sunny 6 -14.2 1 -17 80 80 NNE 7 11 30.56 1035 10 16 N/A
9:35 am 09:35 Sunny 7 -14 2 -16.6 81 81 NE 9 15 30.56 1035 10 16 N/A
9:55 am 09:55 Mostly Cloudy 7 -13.8 2 -16.7 79 79 NE 8 13 30.56 1035 10 16 N/A
10:15 am 10:15 Partly Cloudy 8 -13.5 2 -16.5 78 78 NE 8 13 30.55 1035 10 16 N/A
10:35 am 10:35 Partly Cloudy 8 -13.3 2 -16.6 76 76 NE 10 17 30.56 1035 10 16 N/A
10:55 am 10:55 Partly Cloudy 8 -13.1 2 -16.8 74 74 NE 9 15 30.56 1035 10 16 N/A
11:15 am 11:15 Sunny 8 -13.1 2 -16.8 74 74 NE 10 17 30.56 1035 10 16 N/A
11:35 am 11:35 Partly Cloudy 9 -13 2 -16.8 73 73 NE 10 17 30.56 1035 10 16 N/A
11:55 am 11:55 Sunny 9 -12.7 2 -16.7 72 72 NE 10 17 30.54 1034 10 16 N/A
12:15 pm 12:15 Partly Cloudy 10 -12.5 2 -16.5 72 72 NE 8 13 30.54 1034 10 16 N/A
12:35 pm 12:35 Cloudy 10 -12.5 2 -16.5 72 72 ENE 9 15 30.53 1034 10 16 N/A
12:55 pm 12:55 Mostly Cloudy 10 -12.5 3 -16.3 74 74 NE 6 9 30.53 1034 10 16 N/A
1:15 pm 13:15 Mostly Cloudy 10 -12.3 3 -16 74 74 NE 7 11 30.52 1034 10 16 N/A
1:35 pm 13:35 Cloudy 10 -12.2 3 -15.9 74 74 NNE 8 13 30.52 1033 10 16 N/A
1:55 pm 13:55 Cloudy 10 -12.1 4 -15.8 74 74 NNE 8 13 30.51 1033 10 16 N/A
2:15 pm 14:15 Cloudy 11 -11.9 4 -15.8 73 73 NNE 7 11 30.51 1033 10 16 N/A
2:35 pm 14:35 Cloudy 11 -11.9 3 -16.1 71 71 NNE 8 13 30.50 1033 10 16 N/A
2:55 pm 14:55 Cloudy 11 -11.6 3 -16 70 70 NNE 8 13 30.49 1033 10 16 N/A
3:15 pm 15:15 Cloudy 11 -11.5 3 -16 70 70 NE 6 9 30.49 1033 10 16 N/A
3:35 pm 15:35 Cloudy 11 -11.7 2 -16.5 68 68 NNE 8 13 30.50 1033 10 16 N/A
3:55 pm 15:55 Mostly Cloudy 10 -12 2 -16.5 69 69 NNE 6 9 30.51 1033 10 16 N/A
4:15 pm 16:15 Mostly Cloudy 10 -12 3 -16.2 71 71 NNE 8 13 30.52 1033 10 16 N/A
5:35 pm 17:35 Cloudy 9 -12.7 2 -16.5 73 73 NE 7 11 30.51 1033 10 16 N/A
5:55 pm 17:55 Cloudy 8 -13.3 1 -17.4 72 72 NE 9 15 30.52 1034 10 16 N/A
6:15 pm 18:15 Partly Cloudy 6 -14.7 -1 -18.5 73 73 NE 9 15 30.55 1034 10 16 N/A
6:35 pm 18:35 Partly Cloudy 4 -15.5 -2 -19 75 75 NE 8 13 30.55 1035 10 16 N/A
6:55 pm 18:55 Partly Cloudy 4 -15.5 -2 -19 75 75 NE 7 11 30.56 1035 10 16 N/A
7:15 pm 19:15 Partly Cloudy 3 -16 -3 -19.6 74 74 NE 7 11 30.57 1035 10 16 N/A
7:35 pm 19:35 Clear 2 -16.6 -4 -20.1 75 75 NE 8 13 30.59 1036 10 16 N/A
7:55 pm 19:55 Clear 1 -17 -5 -20.5 74 74 NE 7 11 30.59 1036 10 16 N/A
8:15 pm 20:15 Clear N/A -5 -20.7 77 77 ENE 6 9 30.60 1036 10 16 N/A
8:35 pm 20:35 Clear 3 -16.2 -3 -19.5 76 76 ENE 6 9 30.58 1036 10 16 N/A
8:55 pm 20:55 Clear 1 -17.5 -5 -20.5 78 78 E 5 7 30.60 1036 10 16 N/A
9:15 pm 21:15 Clear -1 -18.5 -6 -21.1 80 80 N N/A 30.63 1037 10 16 N/A
9:35 pm 21:35 Clear N/A -5 -20.4 82 82 N N/A 30.62 1037 10 16 N/A
9:55 pm 21:55 Clear -3 -19.2 -7 -21.5 82 82 N N/A 30.64 1037 10 16 N/A
10:15 pm 22:15 Clear -2 -19 -6 -21 84 84 N N/A 30.64 1038 10 16 N/A
10:35 pm 22:35 Clear -4 -20.1 -8 -22.4 82 82 N N/A 30.66 1038 10 16 N/A
10:55 pm 22:55 Clear -4 -19.9 -8 -22.1 83 83 NE 3 6 30.64 1038 10 16 N/A
11:15 pm 23:15 Clear -3 -19.6 -7 -21.7 84 84 N N/A 30.64 1038 10 16 N/A
11:35 pm 23:35 Clear -4 -20 -8 -22.2 83 83 N N/A 30.66 1038 10 16 N/A
11:55 pm 23:55 Clear -6 -20.9 -10 -23.1 83 83 N N/A 30.67 1038 10 16 N/A

Powered by AerisWeather